Location: Alsip
(41.6689°N, 87.7387°W)
Time: 14:25:07
(UTC+00:00)

Cosmos 1825 - Pass Details

Date: 14 July 2020
Orbit: 503 x 508 km, 82.5° (Epoch: 04 August)

Event Time Altitude Azimuth Distance (km) Brightness Sun altitude
Exits shadow 03:25:54 41° 117° (ESE) 753 2.5 -17.7°
Maximum altitude 03:26:24 43° 93° (E) 721 2.6 -17.8°
Drops below altitude 10° 03:30:01 10° 21° (NNE) 1,734 5.3 -18.2°
Sets 03:32:13 0° 15° (NNE) 2,625 6.4 -18.4°
